Flag for Colombia Weather past 2 weeks in Manizales, Colombia

Now
66 °F

Passing clouds.


Feels Like: 66 °F
Forecast: 57 / 69 °F
Wind: 2 mph from North

Location: Pereira / Matecana

Current Time: Sep 19, 2014 at 11:53:56 PM

Latest Report: Sep 19, 2014 at 11:00 PM


Visibility: N/A

Pressure: 30.15 "Hg

Humidity: 88%

Dew point: 63 °F

Location of ManizalesLocation

Historic Weather in Manizales — Graph

°F

Manizales temperature yesterday

Maximum temperature yesterday: 77 °F (at 3:00 PM)
Minimum temperature yesterday: 63 °F (at 6:00 AM)
Average temperature yesterday: 69 °F

Past Weeks' High & Low Weather Summary

 TemperatureHumidityPressure
High86 °F (Sep 9, 2:00 PM)94% (Sep 11, 10:00 PM)30.24 "Hg (Sep 11, 10:00 PM)
Low63 °F (Sep 12, 7:00 AM)35% (Sep 7, 4:00 PM)29.94 "Hg (Sep 9, 4:00 PM)
Average72 °F73%30.08 "Hg
* Reported Sep 4 11:00 PM — Sep 19 11:00 PM, Manizales, Weather by CustomWeather, © 2014

Note: Actual official high and low records may vary slightly from our data, if they occured in-between our weather recording intervals... More about our weather records

Advertising

Manizales weather history for previous 24 hours

 ConditionsComfort  
Time TempWeatherWind HumidityBarometerVisibility
11:00 PM
Sep 19
66 °FPassing clouds.2 mph88%30.15 "HgN/A
10:00 PM68 °FPassing clouds.2 mph88%30.15 "HgN/A
9:00 PM68 °FPassing clouds.3 mph88%30.13 "HgN/A
8:00 PM68 °FPassing clouds.3 mph88%30.12 "HgN/A
7:00 PM68 °FPassing clouds.3 mph88%30.09 "HgN/A
6:00 PM72 °FPassing clouds.3 mph78%30.06 "HgN/A
5:00 PM72 °FScattered clouds.5 mph73%30.04 "HgN/A
4:00 PM72 °FScattered clouds.9 mph73%30.02 "HgN/A
3:00 PM70 °FScattered showers. Scattered clouds.8 mph83%30.04 "Hg6 mi
2:00 PM70 °FThunderstorms. Broken clouds.9 mph83%30.07 "Hg4 mi
1:00 PM72 °FMild.2 mph78%30.10 "HgN/A
12:00 PM75 °FScattered showers. Scattered clouds.2 mph69%30.12 "HgN/A
11:00 AM75 °FScattered clouds.5 mph69%30.15 "HgN/A
10:00 AM73 °FScattered clouds.5 mph74%30.18 "HgN/A
9:00 AM70 °FBroken clouds.5 mph78%30.18 "HgN/A
8:00 AM70 °FBroken clouds.2 mph78%30.15 "HgN/A
7:00 AM66 °FBroken clouds.2 mph83%30.12 "HgN/A
6:00 AM66 °FScattered clouds.6 mph83%30.10 "HgN/A
5:00 AM64 °FPassing clouds.6 mph88%30.09 "HgN/A
12:00 AM66 °FPassing clouds.9 mph88%30.14 "HgN/A
11:00 PM
Sep 18
66 °FPassing clouds.8 mph88%30.15 "HgN/A
Weather by CustomWeather, © 2014

See weather overviewHow to use our weather pages